Вернуться в каталог

FENGYUN 1C DEB

АктивенSSO
NORAD 30358·DEBRIS·🇨🇳 China

Запущен May 10, 1999 с Taiyuan Satellite Launch Center

Loading…

Ближайшие Пролёты (ближайшие 24 часа)

TLE

СвежийSource: Space-Track

Эпоха: Sep 14, 2026, 11:08 UTC

1 30358U 99025ABV 26257.46408319  .00001958  00000-0  87051-3 0  9998
2 30358  98.5572  83.2170 0082316 118.4970 272.4195 14.22211163  8324

Отслеживайте FENGYUN 1C DEB в реальном времени с AllMySat

Download on the App Store